Cedar Rapids, IA

8:12 PM CDT on September 20, 2019 (GMT -0500)
The Eastern Iowa Airport

Weather History for KCID - August, 2019

Change the Weather History Date:

Wednesday, August 21, 2019

  Actual Average Record
Temperature  
Mean Temperature 70 °F 71 °F  
Max Temperature 76 °F 81 °F 100 °F (1916)
Min Temperature 64 °F 60 °F 45 °F (1950)
Degree Days  
Heating Degree Days 0 1  
Month to date heating degree days 0 2  
Since 1 June heating degree days 11 35  
Since 1 July heating degree days 0 6  
Cooling Degree Days 5 6  
Month to date cooling degree days 142 145  
Year to date cooling degree days 644 612  
Since 1 June cooling degree days 616 563  
Growing Degree Days 20 (Base 50)    
Moisture  
Dew Point 69 °F    
Average Humidity 91    
Maximum Humidity 100    
Minimum Humidity 82    
Precipitation  
Precipitation 0.01 in 0.15 in 2.36 in (1910)
Month to date precipitation 4.92 3.08  
Year to date precipitation 27.51 23.90  
Sea Level Pressure  
Sea Level Pressure 29.98 in    
Wind  
Wind Speed 5 mph (NW)    
Max Wind Speed 16 mph    
Max Gust Speed 22 mph    
Visibility 5 miles    
Events Fog , Rain    
T = Trace of Precipitation, MM = Missing Value Source: NWS Daily Summary

Daily Weather History Graph

Daily Weather History Graph

Search for Another Location

Airport or City:

Astronomy

Aug. 21, 2019 Rise Set
Actual Time 6:20 AM CDT 7:58 PM CDT
Civil Twilight 5:51 AM CDT 8:27 PM CDT
Nautical Twilight 5:15 AM CDT 9:03 PM CDT
Astronomical Twilight 4:37 AM CDT 9:41 PM CDT
Moon 11:10 PM CDT 12:02 PM CDT
Length of Visible Light 14h 36m
Length of Day
13h 37m
Waning Gibbous, 69% of the Moon is Illuminated
Aug 21
Waning Gibbous
Aug 23
Last Quarter
Aug 30
New
Sep 5
First Quarter
Sep 13
Full

Hourly Weather History & Observations

Time (CDT) Temp. Dew Point Humidity Pressure Visibility Wind Dir Wind Speed Gust Speed Precip Events Conditions
12:52 AM 69.1 °F 69.1 °F 100% 29.98 in 9.0 mi SSW 3.5 mph - N/A   Clear
1:52 AM 69.1 °F 69.1 °F 100% 29.97 in 9.0 mi Calm Calm - N/A   Overcast
2:27 AM 69.1 °F 69.1 °F 100% 29.98 in 1.8 mi Calm Calm - N/A   Partly Cloudy
2:36 AM 68.0 °F 68.0 °F 100% 29.97 in 3.0 mi Calm Calm - N/A   Clear
2:40 AM 69.1 °F 69.1 °F 100% 29.97 in 1.5 mi Calm Calm - N/A   Clear
2:52 AM 66.9 °F 66.9 °F 100% 29.95 in 0.8 mi Calm Calm - N/A   Clear
3:19 AM 66.0 °F 66.0 °F 100% 29.95 in 0.2 mi Calm Calm - N/A Fog Fog
3:32 AM 66.2 °F 66.2 °F 100% 29.94 in 1.0 mi Calm Calm - N/A   Mist
3:52 AM 66.0 °F 66.0 °F 100% 29.91 in 0.8 mi Calm Calm - N/A   Mist
4:01 AM 66.9 °F 66.9 °F 100% 29.92 in 0.5 mi ESE 3.5 mph - N/A Fog Fog
4:09 AM 66.0 °F 66.0 °F 100% 29.91 in 1.0 mi East 5.8 mph - N/A   Mist
4:14 AM 66.0 °F 66.0 °F 100% 29.91 in 2.5 mi East 5.8 mph - N/A   Partly Cloudy
4:21 AM 66.2 °F 66.2 °F 100% 29.91 in 3.0 mi East 3.5 mph - N/A   Clear
4:33 AM 66.9 °F 66.9 °F 100% 29.92 in 1.8 mi East 4.6 mph - N/A   Clear
4:45 AM 66.9 °F 66.9 °F 100% 29.94 in 0.5 mi Calm Calm - N/A Fog Fog
4:52 AM 66.9 °F 66.9 °F 100% 29.94 in 0.8 mi Calm Calm - N/A   Clear
4:59 AM 64.9 °F 64.9 °F 100% 29.95 in 10.0 mi WSW 3.5 mph - N/A   Clear
5:52 AM 66.0 °F 66.0 °F 100% 29.94 in 6.0 mi Calm Calm - N/A Fog Shallow Fog
6:52 AM 64.9 °F 64.9 °F 100% 29.96 in 0.2 mi Calm Calm - N/A Fog Fog
6:59 AM 64.9 °F 64.9 °F 100% 29.98 in 0.5 mi Calm Calm - N/A Fog Fog
7:04 AM 66.0 °F 66.0 °F 100% 29.98 in 2.0 mi Calm Calm - N/A   Overcast
7:11 AM 66.0 °F 66.0 °F 100% 29.98 in 4.0 mi Calm Calm - N/A   Mist
7:20 AM 66.9 °F 66.9 °F 100% 29.98 in 4.0 mi Calm Calm - N/A   Mostly Cloudy
7:24 AM 66.9 °F 66.9 °F 100% 29.98 in 4.0 mi Calm Calm - N/A   Partly Cloudy
7:52 AM 68.0 °F 68.0 °F 100% 29.97 in 4.0 mi Calm Calm - N/A   Scattered Clouds
8:52 AM 72.0 °F 72.0 °F 100% 29.98 in 5.0 mi NW 5.8 mph - N/A   Mostly Cloudy
9:03 AM 72.0 °F 72.0 °F 100% 29.99 in 5.0 mi NW 4.6 mph - N/A   Overcast
9:52 AM 73.0 °F 73.0 °F 100% 30.01 in 4.0 mi WSW 4.6 mph - N/A   Overcast
10:03 AM 73.0 °F 73.0 °F 100% 30.03 in 4.0 mi WSW 3.5 mph - N/A   Overcast
10:43 AM 73.0 °F 73.0 °F 100% 30.03 in 4.0 mi WNW 8.1 mph - N/A   Overcast
10:52 AM 73.0 °F 73.0 °F 100% 30.01 in 5.0 mi WNW 8.1 mph - N/A   Overcast
11:41 AM 72.0 °F 72.0 °F 100% 30.06 in 4.0 mi WSW 12.7 mph - N/A   Overcast
11:52 AM 72.0 °F 72.0 °F 100% 30.04 in 2.5 mi WSW 8.1 mph - 0.01 in Rain Light Rain
12:07 PM 72.0 °F 72.0 °F 100% 30.04 in 3.0 mi West 9.2 mph - 0.00 in   Overcast
12:21 PM 72.0 °F 72.0 °F 100% 30.04 in 1.8 mi West 11.5 mph - 0.00 in   Overcast
12:50 PM 72.0 °F 72.0 °F 100% 30.02 in 3.0 mi WNW 15.0 mph - 0.00 in   Overcast
1:02 PM 72.0 °F 71.1 °F 97% 30.04 in 4.0 mi WNW 15.0 mph - N/A   Overcast
1:41 PM 72.0 °F 71.1 °F 97% 30.02 in 7.0 mi WNW 11.5 mph - 0.00 in   Mostly Cloudy
1:50 PM 73.4 °F 71.6 °F 94% 30.02 in 8.0 mi WNW 9.2 mph - N/A   Mostly Cloudy
1:52 PM 73.0 °F 71.1 °F 93% 30.01 in 8.0 mi WNW 9.2 mph - 0.00 in   Mostly Cloudy
2:02 PM 73.0 °F 71.1 °F 93% 30.03 in 9.0 mi NW 10.4 mph - N/A   Mostly Cloudy
2:12 PM 73.0 °F 71.1 °F 93% 30.03 in 10.0 mi NW 10.4 mph - N/A   Overcast
2:24 PM 73.9 °F 71.1 °F 91% 30.02 in 10.0 mi NW 10.4 mph - N/A   Mostly Cloudy
2:52 PM 73.9 °F 71.1 °F 91% 30.00 in 10.0 mi NW 8.1 mph - N/A   Mostly Cloudy
3:27 PM 75.0 °F 69.1 °F 82% 30.00 in 10.0 mi NNW 12.7 mph - N/A   Scattered Clouds
3:52 PM 75.9 °F 69.1 °F 79% 29.97 in 10.0 mi North 10.4 mph - N/A   Partly Cloudy
4:52 PM 73.9 °F 68.0 °F 82% 29.96 in 10.0 mi NNW 8.1 mph - N/A   Partly Cloudy
5:52 PM 73.0 °F 68.0 °F 84% 29.98 in 10.0 mi NW 5.8 mph - N/A   Clear
6:52 PM 72.0 °F 66.0 °F 81% 29.98 in 10.0 mi NNW 6.9 mph - N/A   Mostly Cloudy
7:52 PM 69.1 °F 66.0 °F 90% 29.99 in 10.0 mi NNW 4.6 mph - 0.00 in Rain Light Rain
8:52 PM 66.9 °F 66.0 °F 97% 30.00 in 10.0 mi WNW 4.6 mph - 0.00 in   Mostly Cloudy
9:52 PM 66.9 °F 64.9 °F 93% 30.01 in 10.0 mi Calm Calm - N/A   Mostly Cloudy
10:52 PM 66.9 °F 64.0 °F 90% 30.02 in 10.0 mi NNW 6.9 mph - N/A   Clear
11:52 PM 64.9 °F 64.0 °F 97% 30.04 in 10.0 mi NNW 5.8 mph - N/A   Unknown